Woensdrecht, Netherlands

12:33 PM CEST on July 30, 2016 (GMT +0200)
Woensdrecht Air Base

Weather History for EHWO - July, 2013

Change the Weather History Date:

Saturday, July 13, 2013

  Actual Average Record
Temperature  
Mean Temperature 60 °F -  
Max Temperature 73 °F 70 °F 80 °F (2006)
Min Temperature 48 °F 54 °F 48 °F (2003)
Degree Days  
Heating Degree Days 4    
Growing Degree Days 10 (Base 50)    
Moisture  
Dew Point 53 °F    
Average Humidity 82    
Maximum Humidity 100    
Minimum Humidity 43    
Precipitation  
Precipitation 0.00 in - - ()
Sea Level Pressure  
Sea Level Pressure 30.22 in    
Wind  
Wind Speed 3 mph ()    
Max Wind Speed 10 mph    
Max Gust Speed -    
Visibility 5.9 miles    
Events Fog    
Averages and records for this station are not official NWS values.
T = Trace of Precipitation, MM = Missing Value Source: Averaged Metar Reports

Daily Weather History Graph

Daily Weather History Graph

Search for Another Location

Airport or City:

Trip Planner

Search our weather history database for the weather conditions in past years. The results will help you decide how hot, cold, wet, or windy it might be!

Date:

Astronomy

Jul. 13, 2013 Rise Set
Actual Time 5:41 AM CEST 9:55 PM CEST
Civil Twilight 4:56 AM CEST 10:39 PM CEST
Nautical Twilight 3:50 AM CEST 11:44 PM CEST
Astronomical Twilight 2:20 AM CEST 1:16 AM CEST
Moon 11:24 AM CEST (7/13) 11:41 PM CEST (7/13)
Length of Visible Light 17h 43m
Length of Day
16h 13m
Waxing Crescent, 23% of the Moon is Illuminated
Jul 13
Waxing Crescent
Jul 16
First Quarter
Jul 22
Full
Jul 29
Last Quarter
Aug 6
New

Hourly Weather History & Observations

Time (CEST) Temp. Dew Point Humidity Pressure Visibility Wind Dir Wind Speed Gust Speed Precip Events Conditions
12:00 AM 53 °F 51 °F 92% 30.24 in 9 mi Calm Calm - -  
12:17 AM 51.8 °F 51.8 °F 100% 30.21 in 3.7 mi NNW 2.3 mph - N/A   Mist
12:21 AM 51.8 °F 50.0 °F 94% 30.21 in 6.2 mi NNW 2.3 mph - N/A   Unknown
12:25 AM 51.8 °F 50.0 °F 94% 30.21 in 4.3 mi NNW 1.2 mph - N/A   Mist
12:29 AM 51.8 °F 51.8 °F 100% 30.21 in 5.0 mi NNW 1.2 mph - N/A   Mist
12:33 AM 51.8 °F 50.0 °F 94% 30.21 in 4.3 mi North 1.2 mph - N/A   Mist
12:37 AM 51.8 °F 50.0 °F 94% 30.21 in - NNE 1.2 mph - N/A   Mist
12:41 AM 51.8 °F 50.0 °F 94% 30.21 in 3.7 mi NNE 1.2 mph - N/A   Mist
12:42 AM 51.8 °F 50.0 °F 94% 30.21 in 5.0 mi NE 1.2 mph - N/A   Mist
12:55 AM 51.8 °F 50.0 °F 94% 30.21 in 6.2 mi NE 1.2 mph - N/A   Unknown
1:00 AM 51 °F 50 °F 97% 30.23 in 5 mi Calm Calm - -   Mist
1:01 AM 51.8 °F 50.0 °F 94% 30.21 in 3.7 mi NE 1.2 mph - N/A   Mist
1:16 AM 50.0 °F 48.2 °F 94% 30.21 in 5.0 mi Calm Calm - N/A   Mist
1:25 AM 50.0 °F 48.2 °F 94% 30.21 in 2.8 mi Calm Calm - N/A   Mist
1:29 AM 50.0 °F 48.2 °F 94% 30.21 in - Calm Calm - N/A   Mist
1:33 AM 50.0 °F 48.2 °F 94% 30.21 in 3.1 mi Calm Calm - N/A   Mist
1:37 AM 50.0 °F 48.2 °F 94% 30.21 in - Calm Calm - N/A   Mist
1:41 AM 50.0 °F 48.2 °F 94% 30.21 in 3.1 mi Calm Calm - N/A   Mist
1:42 AM 50.0 °F 48.2 °F 94% 30.21 in 6.2 mi Calm Calm - N/A   Unknown
1:49 AM 50.0 °F 48.2 °F 94% 30.21 in 4.3 mi NNE 1.2 mph - N/A   Mist
1:55 AM 50.0 °F 48.2 °F 94% 30.21 in - NNE 1.2 mph - N/A   Mist
2:00 AM 49 °F 49 °F 98% 30.22 in 3 mi Calm Calm - -   Mist
2:02 AM 50.0 °F 48.2 °F 94% 30.21 in 3.1 mi NE 1.2 mph - N/A   Mist
2:03 AM 50.0 °F 48.2 °F 94% 30.21 in - East 1.2 mph - N/A   Mist
2:10 AM 50.0 °F 50.0 °F 100% 30.21 in 3.1 mi East 1.2 mph - N/A   Mist
2:14 AM 50.0 °F 48.2 °F 94% 30.21 in - ENE 1.2 mph - N/A   Mist
2:18 AM 50.0 °F 48.2 °F 94% 30.21 in 0.5 mi NE 1.2 mph - N/A Fog Fog
2:25 AM 48.2 °F 48.2 °F 100% 30.21 in 3.1 mi Calm Calm - N/A   Mist
2:29 AM 48.2 °F 48.2 °F 100% 30.21 in - Calm Calm - N/A   Mist
2:33 AM 48.2 °F 48.2 °F 100% 30.21 in - Calm Calm - N/A   Mist
2:38 AM 48.2 °F 48.2 °F 100% 30.21 in - Calm Calm - N/A   Partly Cloudy
2:42 AM 48.2 °F 48.2 °F 100% 30.21 in 3.7 mi Calm Calm - N/A   Mostly Cloudy
2:45 AM 50.0 °F 48.2 °F 94% 30.21 in - Calm Calm - N/A   Overcast
2:55 AM 48.2 °F 48.2 °F 100% 30.21 in 1.7 mi Calm Calm - N/A   Overcast
2:59 AM 48.2 °F 48.2 °F 100% 30.21 in 2.5 mi Calm Calm - N/A   Overcast
3:00 AM 49 °F 48 °F 96% 30.23 in 2 mi Calm Calm - - Fog Fog
3:03 AM 50.0 °F 48.2 °F 94% 30.21 in 2.2 mi Calm Calm - N/A   Overcast
3:10 AM 50.0 °F 48.2 °F 94% 30.21 in - Calm Calm - N/A   Overcast
3:15 AM 50.0 °F 50.0 °F 100% 30.21 in 3.1 mi Calm Calm - N/A   Overcast
3:25 AM 51.8 °F 50.0 °F 94% 30.21 in 3.1 mi NNW 1.2 mph - N/A   Overcast
3:32 AM 51.8 °F 51.8 °F 100% 30.21 in - NNW 2.3 mph - N/A   Overcast
3:46 AM 53.6 °F 53.6 °F 100% 30.21 in - North 2.3 mph - N/A   Overcast
3:47 AM 53.6 °F 53.6 °F 100% 30.21 in - North 2.3 mph - N/A   Overcast
3:55 AM 53.6 °F 53.6 °F 100% 30.21 in - NNW 2.3 mph - N/A   Overcast
4:00 AM 54 °F 53 °F 95% 30.23 in 2 mi NNW 2.2 mph - -   Mist
4:25 AM 55.4 °F 53.6 °F 94% 30.21 in - North 3.5 mph - N/A   Overcast
4:29 AM 55.4 °F 53.6 °F 94% 30.21 in 2.2 mi North 3.5 mph - N/A   Overcast
4:55 AM 55.4 °F 53.6 °F 94% 30.21 in 2.2 mi North 2.3 mph - N/A   Overcast
5:00 AM 55 °F 54 °F 97% 30.23 in 2 mi North 2.2 mph - -   Mist
5:17 AM 55.4 °F 53.6 °F 94% 30.21 in - North 2.3 mph - N/A   Overcast
5:25 AM 55.4 °F 53.6 °F 94% 30.21 in 2.5 mi North 2.3 mph - N/A   Overcast
5:36 AM 55.4 °F 53.6 °F 94% 30.21 in 2.8 mi North 3.5 mph - N/A   Overcast
5:55 AM 55.4 °F 53.6 °F 94% 30.21 in - North 3.5 mph - N/A   Overcast
5:56 AM 55.4 °F 53.6 °F 94% 30.21 in - North 3.5 mph - N/A   Overcast
6:00 AM 56 °F 54 °F 92% 30.24 in 2 mi North 2.2 mph - -   Mist
6:09 AM 55.4 °F 53.6 °F 94% 30.21 in - North 3.5 mph - N/A   Overcast
6:25 AM 55.4 °F 55.4 °F 100% 30.21 in - North 2.3 mph - N/A   Overcast
6:32 AM 55.4 °F 55.4 °F 100% 30.21 in 3.1 mi North 3.5 mph - N/A   Overcast
6:38 AM 55.4 °F 55.4 °F 100% 30.21 in - North 3.5 mph - N/A   Overcast
6:45 AM 55.4 °F 55.4 °F 100% 30.21 in 3.1 mi North 3.5 mph - N/A   Overcast
6:49 AM 55.4 °F 55.4 °F 100% 30.21 in - North 3.5 mph - N/A   Overcast
6:55 AM 57.2 °F 55.4 °F 94% 30.21 in - North 3.5 mph - N/A   Overcast
7:00 AM 57 °F 55 °F 92% 30.23 in 3 mi North 4.5 mph - -   Mist
7:03 AM 57.2 °F 55.4 °F 94% 30.21 in 3.1 mi North 3.5 mph - N/A   Overcast
7:05 AM 57.2 °F 55.4 °F 94% 30.21 in - North 3.5 mph - N/A   Overcast
7:25 AM 57.2 °F 55.4 °F 94% 30.21 in - North 3.5 mph - N/A   Overcast
7:29 AM 57.2 °F 55.4 °F 94% 30.21 in 3.1 mi North 2.3 mph - N/A   Overcast
7:31 AM 57.2 °F 55.4 °F 94% 30.21 in - North 3.5 mph - N/A   Overcast
7:37 AM 57.2 °F 55.4 °F 94% 30.21 in 3.1 mi North 3.5 mph - N/A   Mostly Cloudy
7:50 AM 59.0 °F 55.4 °F 88% 30.21 in 3.7 mi North 3.5 mph - N/A   Overcast
7:55 AM 59.0 °F 55.4 °F 88% 30.21 in 4.3 mi North 3.5 mph - N/A   Overcast
7:59 AM 59.0 °F 55.4 °F 88% 30.21 in 5.0 mi North 3.5 mph - N/A   Mostly Cloudy
8:00 AM 59 °F 56 °F 86% 30.23 in 5 mi North 4.5 mph - -   Mist
8:12 AM 59.0 °F 55.4 °F 88% 30.21 in 5.6 mi North 5.8 mph - N/A   Partly Cloudy
8:17 AM 60.8 °F 55.4 °F 82% 30.21 in 6.2 mi North 5.8 mph - N/A   Scattered Clouds
8:18 AM 60.8 °F 57.2 °F 88% 30.21 in 5.6 mi NNE 5.8 mph - N/A   Mostly Cloudy
8:25 AM 60.8 °F 55.4 °F 82% 30.21 in 5.6 mi NNE 5.8 mph - N/A   Mostly Cloudy
8:35 AM 60.8 °F 55.4 °F 82% 30.21 in 5.6 mi North 6.9 mph - N/A   Mostly Cloudy
8:41 AM 60.8 °F 55.4 °F 82% 30.21 in 6.2 mi North 6.9 mph - N/A   Mostly Cloudy
8:45 AM 60.8 °F 55.4 °F 82% 30.21 in 6.2 mi North 5.8 mph - N/A   Mostly Cloudy
8:55 AM 62.6 °F 55.4 °F 77% 30.21 in 6.2 mi NNE 6.9 mph - N/A   Mostly Cloudy
9:00 AM 62 °F 54 °F 69% 30.24 in 9 mi NE 6.7 mph - -   Scattered Clouds
9:11 AM 62.6 °F 55.4 °F 77% 30.21 in 6.2 mi NE 8.1 mph - N/A   Mostly Cloudy
9:18 AM 60.8 °F 55.4 °F 82% 30.21 in 6.2 mi NE 8.1 mph - N/A   Scattered Clouds
9:25 AM 62.6 °F 53.6 °F 72% 30.21 in 6.2 mi NNE 5.8 mph - N/A   Mostly Cloudy
9:29 AM 62.6 °F 55.4 °F 77% 30.21 in 6.2 mi NE 5.8 mph - N/A   Mostly Cloudy
9:40 AM 62.6 °F 53.6 °F 72% 30.21 in 6.2 mi NNE 6.9 mph - N/A   Partly Cloudy
9:55 AM 62.6 °F 53.6 °F 72% 30.21 in 6.2 mi NE 5.8 mph - N/A   Scattered Clouds
10:00 AM 62 °F 54 °F 66% 30.25 in 15 mi NNE 6.7 mph - -   Scattered Clouds
10:25 AM 64.4 °F 53.6 °F 68% 30.24 in 6.2 mi NE 6.9 mph - N/A   Overcast
10:31 AM 64.4 °F 53.6 °F 68% 30.24 in 6.2 mi NE 6.9 mph - N/A   Overcast
10:41 AM 64.4 °F 51.8 °F 64% 30.24 in 6.2 mi ENE 5.8 mph - N/A   Mostly Cloudy
10:55 AM 66.2 °F 53.6 °F 64% 30.24 in 6.2 mi North 6.9 mph - N/A   Overcast
10:59 AM 64.4 °F 51.8 °F 64% 30.24 in 6.2 mi NNW 5.8 mph - N/A   Overcast
11:00 AM 66 °F 53 °F 53% 30.25 in 14 mi NW 6.7 mph - -   Scattered Clouds
11:10 AM 66.2 °F 53.6 °F 64% 30.24 in 3.7 mi NNW 6.9 mph - N/A   Haze
11:14 AM 66.2 °F 53.6 °F 64% 30.24 in 6.2 mi NW 6.9 mph - N/A   Mostly Cloudy
11:25 AM 64.4 °F 53.6 °F 68% 30.24 in 6.2 mi NNW 6.9 mph - N/A   Overcast
11:55 AM 66.2 °F 51.8 °F 60% 30.24 in 6.2 mi NE 3.5 mph - N/A   Mostly Cloudy
12:00 PM 66 °F 51 °F 48% 30.25 in 15 mi NNW 4.5 mph - -   Scattered Clouds
12:25 PM 68.0 °F 53.6 °F 60% 30.24 in 6.2 mi NE 4.6 mph - N/A   Partly Cloudy
12:55 PM 68.0 °F 51.8 °F 56% 30.21 in 6.2 mi NE 6.9 mph - N/A   Scattered Clouds
1:00 PM 68 °F 53 °F 50% 30.24 in 17 mi NE 4.5 mph - -   Partly Cloudy
1:25 PM 69.8 °F 53.6 °F 56% 30.21 in 6.2 mi North 4.6 mph - N/A   Partly Cloudy
1:55 PM 69.8 °F 51.8 °F 53% 30.24 in 6.2 mi NNW 8.1 mph - N/A   Partly Cloudy
2:00 PM 69 °F 52 °F 45% 30.25 in 15 mi North 4.5 mph - -   Partly Cloudy
2:25 PM 69.8 °F 51.8 °F 53% 30.24 in 6.2 mi NW 5.8 mph - N/A   Partly Cloudy
2:55 PM 69.8 °F 51.8 °F 53% 30.21 in 6.2 mi North 4.6 mph - N/A   Mostly Cloudy
3:00 PM 71 °F 53 °F 43% 30.24 in 12 mi NNE 6.7 mph - -   Mostly Cloudy
3:25 PM 71.6 °F 53.6 °F 53% 30.21 in 6.2 mi NNW 5.8 mph - N/A   Mostly Cloudy
3:55 PM 69.8 °F 51.8 °F 53% 30.21 in 6.2 mi North 5.8 mph - N/A   Overcast
4:00 PM 71 °F 54 °F 44% 30.23 in 14 mi ENE 4.5 mph - -   Mostly Cloudy
4:25 PM 71.6 °F 53.6 °F 53% 30.21 in 6.2 mi North 5.8 mph - N/A   Mostly Cloudy
4:55 PM 71.6 °F 53.6 °F 53% 30.21 in 6.2 mi North 6.9 mph - N/A   Overcast
5:00 PM 72 °F 54 °F 44% 30.23 in 12 mi North 4.5 mph - -   Overcast
5:25 PM 71.6 °F 55.4 °F 57% 30.21 in 6.2 mi NNW 9.2 mph - N/A   Scattered Clouds
5:55 PM 69.8 °F 55.4 °F 60% 30.21 in 6.2 mi North 9.2 mph - N/A   Partly Cloudy
6:00 PM 71 °F 55 °F 47% 30.24 in 15 mi NNW 8.9 mph - -   Scattered Clouds
6:25 PM 69.8 °F 55.4 °F 60% 30.21 in 6.2 mi North 8.1 mph - N/A   Scattered Clouds
6:55 PM 69.8 °F 55.4 °F 60% 30.21 in 6.2 mi North 10.4 mph - N/A   Scattered Clouds
7:00 PM 69 °F 55 °F 52% 30.23 in 14 mi North 8.9 mph - -   Scattered Clouds
7:25 PM 68.0 °F 55.4 °F 64% 30.21 in 6.2 mi North 9.2 mph - N/A   Unknown
7:55 PM 68.0 °F 55.4 °F 64% 30.21 in 6.2 mi North 6.9 mph - N/A   Unknown
8:00 PM 67 °F 55 °F 56% 30.23 in 12 mi NNW 6.7 mph - -   Partly Cloudy
8:25 PM 66.2 °F 55.4 °F 68% 30.21 in 6.2 mi NNW 8.1 mph - N/A   Unknown
8:55 PM 66.2 °F 55.4 °F 68% 30.21 in 6.2 mi North 5.8 mph - N/A   Unknown
9:00 PM 65 °F 55 °F 63% 30.24 in 12 mi NNW 6.7 mph - -  
9:25 PM 64.4 °F 55.4 °F 73% 30.21 in 6.2 mi North 3.5 mph - N/A   Unknown
9:55 PM 62.6 °F 55.4 °F 77% 30.21 in 6.2 mi NNW 3.5 mph - N/A   Unknown
10:00 PM 62 °F 55 °F 70% 30.25 in 11 mi North 4.5 mph - -  
10:25 PM 60.8 °F 55.4 °F 82% 30.24 in 6.2 mi North 4.6 mph - N/A   Unknown
10:55 PM 59.0 °F 53.6 °F 82% 30.24 in 6.2 mi North 2.3 mph - N/A   Unknown
11:00 PM 58 °F 54 °F 83% 30.25 in 7 mi North 2.2 mph - -  
11:25 PM 57.2 °F 55.4 °F 94% 30.24 in 6.2 mi Calm Calm - N/A   Unknown
11:42 PM 57.2 °F 55.4 °F 94% 30.24 in 4.3 mi Calm Calm - N/A   Mist
11:45 PM 57.2 °F 55.4 °F 94% 30.24 in 5.0 mi Calm Calm - N/A   Mist
11:55 PM 55.4 °F 53.6 °F 94% 30.24 in 5.0 mi Calm Calm - N/A   Partly Cloudy